Time,TemperatureF,DewpointF,PressureIn,WindDirection,WindDirectionDegrees,WindSpeedMPH,WindSpeedGustMPH,Humidity,HourlyPrecipIn,Conditions,Clouds,dailyrainin,SoftwareType,DateUTC
2013-02-21 00:00:00,55.9,51.5,30.05,ENE,67,0.0,0.0,85,0.00,,,0.00,Wunderground v.1.15,2013-02-21 05:00:00,
2013-02-21 00:05:00,55.8,51.4,30.05,ENE,67,0.0,0.0,85,0.00,,,0.00,Wunderground v.1.15,2013-02-21 05:05:00,
2013-02-21 00:10:00,55.6,51.2,30.05,ENE,67,0.0,0.0,85,0.00,,,0.00,Wunderground v.1.15,2013-02-21 05:10:00,
2013-02-21 00:15:00,55.4,51.0,30.05,ENE,67,0.0,0.0,85,0.00,,,0.00,Wunderground v.1.15,2013-02-21 05:15:00,
2013-02-21 00:20:00,55.3,51.2,30.05,ENE,67,0.0,0.0,86,0.00,,,0.00,Wunderground v.1.15,2013-02-21 05:20:00,
2013-02-21 00:25:00,55.2,51.1,30.04,ENE,67,0.0,0.0,86,0.00,,,0.00,Wunderground v.1.15,2013-02-21 05:25:00,
2013-02-21 00:30:00,55.0,50.9,30.04,ENE,67,0.0,0.0,86,0.00,,,0.00,Wunderground v.1.15,2013-02-21 05:30:00,
2013-02-21 00:35:00,54.8,50.7,30.04,ENE,67,0.0,0.0,86,0.00,,,0.00,Wunderground v.1.15,2013-02-21 05:35:00,
2013-02-21 00:40:00,54.5,50.4,30.04,ENE,67,0.0,0.0,86,0.00,,,0.00,Wunderground v.1.15,2013-02-21 05:40:00,
2013-02-21 00:45:00,54.3,50.2,30.04,ENE,67,0.0,0.0,86,0.00,,,0.00,Wunderground v.1.15,2013-02-21 05:45:00,
2013-02-21 00:50:00,54.1,50.3,30.04,ENE,67,0.0,0.0,87,0.00,,,0.00,Wunderground v.1.15,2013-02-21 05:50:00,
2013-02-21 00:55:00,54.0,50.2,30.04,ENE,67,0.0,0.0,87,0.00,,,0.00,Wunderground v.1.15,2013-02-21 05:55:00,
2013-02-21 01:00:00,53.9,50.1,30.03,ENE,67,0.0,0.0,87,0.00,,,0.00,Wunderground v.1.15,2013-02-21 06:00:00,
2013-02-21 01:05:00,53.7,49.9,30.03,ENE,67,0.0,0.0,87,0.00,,,0.00,Wunderground v.1.15,2013-02-21 06:05:00,
2013-02-21 01:10:00,53.8,50.3,30.03,ENE,67,0.0,0.0,88,0.00,,,0.00,Wunderground v.1.15,2013-02-21 06:10:00,
2013-02-21 01:15:00,53.9,50.4,30.03,ENE,67,0.0,0.0,88,0.00,,,0.00,Wunderground v.1.15,2013-02-21 06:15:00,
2013-02-21 01:20:00,54.0,50.5,30.03,ENE,67,0.0,0.0,88,0.00,,,0.00,Wunderground v.1.15,2013-02-21 06:20:00,
2013-02-21 01:25:00,54.1,50.9,30.04,ENE,67,0.0,0.0,89,0.00,,,0.00,Wunderground v.1.15,2013-02-21 06:25:00,
2013-02-21 01:30:00,54.2,51.0,30.04,ENE,67,0.0,0.0,89,0.00,,,0.00,Wunderground v.1.15,2013-02-21 06:30:00,
2013-02-21 01:35:00,54.4,51.2,30.04,ENE,67,0.0,0.0,89,0.00,,,0.00,Wunderground v.1.15,2013-02-21 06:35:00,
2013-02-21 01:40:00,54.5,51.3,30.04,ENE,67,0.0,0.0,89,0.00,,,0.00,Wunderground v.1.15,2013-02-21 06:40:00,
2013-02-21 01:45:00,54.5,51.3,30.03,ENE,67,0.0,0.0,89,0.00,,,0.00,Wunderground v.1.15,2013-02-21 06:45:00,
2013-02-21 01:50:00,54.5,51.3,30.03,ENE,67,0.0,0.0,89,0.00,,,0.00,Wunderground v.1.15,2013-02-21 06:50:00,
2013-02-21 01:55:00,54.6,51.4,30.03,ENE,67,0.0,0.0,89,0.00,,,0.00,Wunderground v.1.15,2013-02-21 06:55:00,
2013-02-21 02:00:00,54.6,51.7,30.03,ENE,67,0.0,0.0,90,0.00,,,0.00,Wunderground v.1.15,2013-02-21 07:00:00,
2013-02-21 02:05:00,54.6,51.7,30.03,ENE,67,0.0,0.0,90,0.00,,,0.00,Wunderground v.1.15,2013-02-21 07:05:00,
2013-02-21 02:10:00,54.6,51.7,30.03,ENE,67,0.0,0.0,90,0.00,,,0.00,Wunderground v.1.15,2013-02-21 07:10:00,
2013-02-21 02:15:00,54.6,51.7,30.02,ENE,67,0.0,0.0,90,0.00,,,0.00,Wunderground v.1.15,2013-02-21 07:15:00,
2013-02-21 02:20:00,54.8,51.9,30.02,ENE,67,0.0,0.0,90,0.00,,,0.00,Wunderground v.1.15,2013-02-21 07:20:00,
2013-02-21 02:25:00,54.9,52.0,30.02,ENE,67,0.0,0.0,90,0.00,,,0.00,Wunderground v.1.15,2013-02-21 07:25:00,
2013-02-21 02:30:00,55.1,52.2,30.02,ENE,67,0.0,0.0,90,0.00,,,0.00,Wunderground v.1.15,2013-02-21 07:30:00,
2013-02-21 02:35:00,55.2,52.6,30.02,ENE,67,0.0,0.0,91,0.00,,,0.00,Wunderground v.1.15,2013-02-21 07:35:00,
2013-02-21 02:40:00,55.4,52.8,30.02,ENE,67,0.0,0.0,91,0.00,,,0.00,Wunderground v.1.15,2013-02-21 07:40:00,
2013-02-21 02:45:00,55.6,53.0,30.02,ENE,67,0.0,0.0,91,0.00,,,0.00,Wunderground v.1.15,2013-02-21 07:45:00,
2013-02-21 02:55:00,55.7,53.1,30.02,ENE,67,0.0,0.0,91,0.00,,,0.00,Wunderground v.1.15,2013-02-21 07:55:00,
2013-02-21 03:00:00,55.8,53.2,30.02,ENE,67,0.0,0.0,91,0.00,,,0.00,Wunderground v.1.15,2013-02-21 08:00:00,
2013-02-21 03:05:00,55.8,53.2,30.02,ENE,67,0.0,0.0,91,0.00,,,0.00,Wunderground v.1.15,2013-02-21 08:05:00,
2013-02-21 03:15:00,55.7,53.1,30.02,ENE,67,0.0,0.0,91,0.00,,,0.00,Wunderground v.1.15,2013-02-21 08:15:00,
2013-02-21 03:20:00,55.7,53.1,30.01,ENE,67,0.0,0.0,91,0.00,,,0.00,Wunderground v.1.15,2013-02-21 08:20:00,
2013-02-21 03:25:00,55.6,53.0,30.02,ENE,67,0.0,0.0,91,0.00,,,0.00,Wunderground v.1.15,2013-02-21 08:25:00,
2013-02-21 03:30:00,55.5,52.9,30.01,ENE,67,0.0,0.0,91,0.00,,,0.00,Wunderground v.1.15,2013-02-21 08:30:00,
2013-02-21 03:35:00,55.4,52.8,30.02,ENE,67,0.0,0.0,91,0.00,,,0.00,Wunderground v.1.15,2013-02-21 08:35:00,
2013-02-21 03:45:00,55.2,52.6,30.01,ENE,67,0.0,0.0,91,0.00,,,0.00,Wunderground v.1.15,2013-02-21 08:45:00,
2013-02-21 03:50:00,55.0,52.1,30.01,ENE,67,0.0,0.0,90,0.00,,,0.00,Wunderground v.1.15,2013-02-21 08:50:00,
2013-02-21 03:55:00,54.7,51.8,30.01,ENE,67,0.0,0.0,90,0.00,,,0.00,Wunderground v.1.15,2013-02-21 08:55:00,
2013-02-21 04:00:00,54.6,51.7,30.01,ENE,67,0.0,0.0,90,0.00,,,0.00,Wunderground v.1.15,2013-02-21 09:00:00,
2013-02-21 04:05:00,54.4,51.5,30.01,ENE,67,0.0,0.0,90,0.00,,,0.00,Wunderground v.1.15,2013-02-21 09:05:00,
2013-02-21 04:10:00,54.2,51.3,30.01,ENE,67,0.0,0.0,90,0.00,,,0.00,Wunderground v.1.15,2013-02-21 09:10:00,
2013-02-21 04:15:00,54.1,51.2,30.01,ENE,67,0.0,0.0,90,0.00,,,0.00,Wunderground v.1.15,2013-02-21 09:15:00,
2013-02-21 04:20:00,53.9,51.3,30.02,ENE,67,0.0,0.0,91,0.00,,,0.00,Wunderground v.1.15,2013-02-21 09:20:00,
2013-02-21 04:25:00,53.7,51.1,30.02,ENE,67,0.0,0.0,91,0.00,,,0.00,Wunderground v.1.15,2013-02-21 09:25:00,
2013-02-21 04:30:00,53.5,50.9,30.01,ENE,67,0.0,0.0,91,0.00,,,0.00,Wunderground v.1.15,2013-02-21 09:30:00,
2013-02-21 04:35:00,53.4,50.8,30.01,ENE,67,0.0,0.0,91,0.00,,,0.00,Wunderground v.1.15,2013-02-21 09:35:00,
2013-02-21 04:40:00,53.3,50.7,30.02,ENE,67,0.0,0.0,91,0.00,,,0.00,Wunderground v.1.15,2013-02-21 09:40:00,
2013-02-21 04:50:00,52.9,50.3,30.02,ENE,67,0.0,0.0,91,0.00,,,0.00,Wunderground v.1.15,2013-02-21 09:50:00,
2013-02-21 04:55:00,52.9,50.3,30.02,ENE,67,0.0,0.0,91,0.00,,,0.00,Wunderground v.1.15,2013-02-21 09:55:00,
2013-02-21 05:00:00,53.1,50.8,30.02,ENE,67,0.0,0.0,92,0.00,,,0.00,Wunderground v.1.15,2013-02-21 10:00:00,
2013-02-21 05:05:00,53.6,51.3,30.02,ENE,67,0.0,0.0,92,0.00,,,0.00,Wunderground v.1.15,2013-02-21 10:05:00,
2013-02-21 05:10:00,53.8,51.5,30.02,ENE,67,0.0,0.0,92,0.00,,,0.00,Wunderground v.1.15,2013-02-21 10:10:00,
2013-02-21 05:15:00,54.1,51.8,30.02,ENE,67,0.0,0.0,92,0.00,,,0.00,Wunderground v.1.15,2013-02-21 10:15:00,
2013-02-21 05:20:00,54.4,52.4,30.03,ENE,67,0.0,0.0,93,0.00,,,0.00,Wunderground v.1.15,2013-02-21 10:20:00,
2013-02-21 05:25:00,54.7,52.7,30.03,ENE,67,0.0,0.0,93,0.00,,,0.00,Wunderground v.1.15,2013-02-21 10:25:00,
2013-02-21 05:30:00,54.8,52.5,30.03,ENE,67,0.0,0.0,92,0.00,,,0.00,Wunderground v.1.15,2013-02-21 10:30:00,
2013-02-21 05:35:00,54.8,52.5,30.03,ENE,67,0.0,0.0,92,0.00,,,0.00,Wunderground v.1.15,2013-02-21 10:35:00,
2013-02-21 05:40:00,54.9,52.6,30.03,ENE,67,0.0,0.0,92,0.00,,,0.00,Wunderground v.1.15,2013-02-21 10:40:00,
2013-02-21 05:45:00,55.0,53.0,30.03,ENE,67,0.0,0.0,93,0.00,,,0.00,Wunderground v.1.15,2013-02-21 10:45:00,
2013-02-21 05:50:00,55.2,53.2,30.03,ENE,67,0.0,0.0,93,0.00,,,0.00,Wunderground v.1.15,2013-02-21 10:50:00,
2013-02-21 05:55:00,55.4,53.4,30.03,ENE,67,0.0,0.0,93,0.00,,,0.00,Wunderground v.1.15,2013-02-21 10:55:00,
2013-02-21 06:00:00,55.5,53.5,30.04,ENE,67,0.0,0.0,93,0.00,,,0.00,Wunderground v.1.15,2013-02-21 11:00:00,
2013-02-21 06:05:00,55.5,53.5,30.04,ENE,67,0.0,0.0,93,0.00,,,0.00,Wunderground v.1.15,2013-02-21 11:05:00,
2013-02-21 06:15:00,55.4,53.4,30.03,ENE,67,0.0,0.0,93,0.00,,,0.00,Wunderground v.1.15,2013-02-21 11:15:00,
2013-02-21 06:20:00,55.2,53.2,30.04,ENE,67,0.0,0.0,93,0.00,,,0.00,Wunderground v.1.15,2013-02-21 11:20:00,
2013-02-21 06:25:00,55.0,53.0,30.04,ENE,67,0.0,0.0,93,0.00,,,0.00,Wunderground v.1.15,2013-02-21 11:25:00,
2013-02-21 06:30:00,54.9,52.9,30.04,ENE,67,0.0,0.0,93,0.00,,,0.00,Wunderground v.1.15,2013-02-21 11:30:00,
2013-02-21 06:35:00,54.8,52.8,30.04,ENE,67,0.0,0.0,93,0.00,,,0.00,Wunderground v.1.15,2013-02-21 11:35:00,
2013-02-21 06:40:00,54.9,52.9,30.04,ENE,67,0.0,0.0,93,0.00,,,0.00,Wunderground v.1.15,2013-02-21 11:40:00,
2013-02-21 06:45:00,54.8,52.8,30.04,ENE,67,0.0,0.0,93,0.00,,,0.00,Wunderground v.1.15,2013-02-21 11:45:00,
2013-02-21 06:50:00,54.6,52.6,30.04,ENE,67,0.0,0.0,93,0.00,,,0.00,Wunderground v.1.15,2013-02-21 11:50:00,
2013-02-21 06:55:00,54.6,52.6,30.04,ENE,67,0.0,0.0,93,0.00,,,0.00,Wunderground v.1.15,2013-02-21 11:55:00,
2013-02-21 07:00:00,54.5,52.5,30.04,ENE,67,0.0,0.0,93,0.00,,,0.00,Wunderground v.1.15,2013-02-21 12:00:00,
2013-02-21 07:05:00,54.4,52.4,30.04,ENE,67,0.0,0.0,93,0.00,,,0.00,Wunderground v.1.15,2013-02-21 12:05:00,
2013-02-21 07:10:00,54.6,52.6,30.05,ENE,67,0.0,0.0,93,0.00,,,0.00,Wunderground v.1.15,2013-02-21 12:10:00,
2013-02-21 07:15:00,54.7,52.7,30.04,ENE,67,0.0,0.0,93,0.00,,,0.00,Wunderground v.1.15,2013-02-21 12:15:00,
2013-02-21 07:20:00,54.6,52.6,30.04,ENE,67,0.0,0.0,93,0.00,,,0.00,Wunderground v.1.15,2013-02-21 12:20:00,
2013-02-21 07:25:00,54.6,52.6,30.05,ENE,67,0.0,0.0,93,0.00,,,0.00,Wunderground v.1.15,2013-02-21 12:25:00,
2013-02-21 07:30:00,54.9,53.2,30.05,ENE,67,0.0,0.0,94,0.00,,,0.00,Wunderground v.1.15,2013-02-21 12:30:00,
2013-02-21 07:40:00,56.3,54.6,30.05,ENE,67,0.0,0.0,94,0.00,,,0.00,Wunderground v.1.15,2013-02-21 12:40:00,
2013-02-21 07:45:00,57.2,55.5,30.06,ENE,67,0.0,0.0,94,0.00,,,0.00,Wunderground v.1.15,2013-02-21 12:45:00,
2013-02-21 07:50:00,57.9,56.2,30.06,ENE,67,0.0,2.0,94,0.00,,,0.00,Wunderground v.1.15,2013-02-21 12:50:00,
2013-02-21 08:00:00,58.8,57.1,30.07,ENE,67,2.0,2.0,94,0.00,,,0.00,Wunderground v.1.15,2013-02-21 13:00:00,
2013-02-21 08:05:00,59.0,57.0,30.07,ENE,67,2.0,2.0,93,0.00,,,0.00,Wunderground v.1.15,2013-02-21 13:05:00,
2013-02-21 08:10:00,59.5,57.5,30.07,NE,50,1.0,1.0,93,0.00,,,0.00,Wunderground v.1.15,2013-02-21 13:10:00,
2013-02-21 08:15:00,60.0,57.7,30.07,NE,49,1.0,1.0,92,0.00,,,0.00,Wunderground v.1.15,2013-02-21 13:15:00,
2013-02-21 08:20:00,60.6,58.0,30.07,NE,49,2.0,2.0,91,0.00,,,0.00,Wunderground v.1.15,2013-02-21 13:20:00,
2013-02-21 08:25:00,61.0,58.0,30.07,NE,49,2.0,2.0,90,0.00,,,0.00,Wunderground v.1.15,2013-02-21 13:25:00,
2013-02-21 08:30:00,61.4,58.4,30.08,NE,46,1.0,1.0,90,0.00,,,0.00,Wunderground v.1.15,2013-02-21 13:30:00,
2013-02-21 08:35:00,62.2,58.9,30.08,NE,46,1.0,4.0,89,0.00,,,0.00,Wunderground v.1.15,2013-02-21 13:35:00,
2013-02-21 08:40:00,63.0,59.1,30.07,NE,44,3.0,3.0,87,0.00,,,0.00,Wunderground v.1.15,2013-02-21 13:40:00,
2013-02-21 08:45:00,63.7,59.4,30.08,NE,44,3.0,3.0,86,0.00,,,0.00,Wunderground v.1.15,2013-02-21 13:45:00,
2013-02-21 08:50:00,64.5,59.9,30.08,NE,44,1.0,3.0,85,0.00,,,0.00,Wunderground v.1.15,2013-02-21 13:50:00,
2013-02-21 08:55:00,65.2,60.2,30.08,NE,44,1.0,3.0,84,0.00,,,0.00,Wunderground v.1.15,2013-02-21 13:55:00,
2013-02-21 09:00:00,65.8,60.5,30.08,NE,46,2.0,5.0,83,0.00,,,0.00,Wunderground v.1.15,2013-02-21 14:00:00,
2013-02-21 09:05:00,66.4,60.7,30.08,NE,44,3.0,5.0,82,0.00,,,0.00,Wunderground v.1.15,2013-02-21 14:05:00,
2013-02-21 09:10:00,67.0,61.3,30.08,NE,44,4.0,4.0,82,0.00,,,0.00,Wunderground v.1.15,2013-02-21 14:10:00,
2013-02-21 09:15:00,67.4,61.4,30.09,NE,44,4.0,4.0,81,0.00,,,0.00,Wunderground v.1.15,2013-02-21 14:15:00,
2013-02-21 09:20:00,67.8,61.8,30.09,NE,35,4.0,4.0,81,0.00,,,0.00,Wunderground v.1.15,2013-02-21 14:20:00,
2013-02-21 09:25:00,68.4,62.3,30.09,NE,41,4.0,6.0,81,0.00,,,0.00,Wunderground v.1.15,2013-02-21 14:25:00,
2013-02-21 09:30:00,68.7,62.6,30.09,NE,42,4.0,4.0,81,0.00,,,0.00,Wunderground v.1.15,2013-02-21 14:30:00,
2013-02-21 09:35:00,69.0,62.6,30.09,NE,42,3.0,4.0,80,0.00,,,0.00,Wunderground v.1.15,2013-02-21 14:35:00,
2013-02-21 09:40:00,69.5,63.4,30.08,NE,44,3.0,5.0,81,0.00,,,0.00,Wunderground v.1.15,2013-02-21 14:40:00,
2013-02-21 09:45:00,70.2,64.1,30.08,NE,52,3.0,5.0,81,0.00,,,0.00,Wunderground v.1.15,2013-02-21 14:45:00,
2013-02-21 09:50:00,70.8,64.0,30.08,ENE,64,3.0,5.0,79,0.00,,,0.00,Wunderground v.1.15,2013-02-21 14:50:00,
2013-02-21 09:55:00,71.1,64.3,30.08,ENE,67,3.0,5.0,79,0.00,,,0.00,Wunderground v.1.15,2013-02-21 14:55:00,
2013-02-21 10:00:00,71.7,64.8,30.08,ENE,67,2.0,3.0,79,0.00,,,0.00,Wunderground v.1.15,2013-02-21 15:00:00,
2013-02-21 10:05:00,72.3,65.1,30.08,ENE,68,3.0,3.0,78,0.00,,,0.00,Wunderground v.1.15,2013-02-21 15:05:00,
2013-02-21 10:10:00,72.7,65.1,30.08,ENE,59,3.0,3.0,77,0.00,,,0.00,Wunderground v.1.15,2013-02-21 15:10:00,
2013-02-21 10:15:00,73.1,65.5,30.09,ENE,59,2.0,3.0,77,0.00,,,0.00,Wunderground v.1.15,2013-02-21 15:15:00,
2013-02-21 10:20:00,73.4,65.4,30.09,ENE,65,2.0,4.0,76,0.00,,,0.00,Wunderground v.1.15,2013-02-21 15:20:00,
2013-02-21 10:25:00,73.5,65.8,30.08,East,95,3.0,6.0,77,0.00,,,0.00,Wunderground v.1.15,2013-02-21 15:25:00,
2013-02-21 10:35:00,74.1,66.0,30.08,ESE,116,5.0,5.0,76,0.00,,,0.00,Wunderground v.1.15,2013-02-21 15:35:00,
2013-02-21 10:40:00,74.3,66.6,30.08,SE,141,5.0,5.0,77,0.00,,,0.00,Wunderground v.1.15,2013-02-21 15:40:00,
2013-02-21 10:50:00,75.3,66.8,30.08,SE,138,5.0,5.0,75,0.00,,,0.00,Wunderground v.1.15,2013-02-21 15:50:00,
2013-02-21 10:55:00,75.5,67.4,30.08,SE,138,4.0,5.0,76,0.00,,,0.00,Wunderground v.1.15,2013-02-21 15:55:00,
2013-02-21 11:00:00,75.8,66.9,30.08,SSE,150,4.0,6.0,74,0.00,,,0.00,Wunderground v.1.15,2013-02-21 16:00:00,
2013-02-21 11:05:00,75.7,66.4,30.08,SE,134,5.0,6.0,73,0.00,,,0.00,Wunderground v.1.15,2013-02-21 16:05:00,
2013-02-21 11:10:00,75.7,66.4,30.08,SE,130,5.0,6.0,73,0.00,,,0.00,Wunderground v.1.15,2013-02-21 16:10:00,
2013-02-21 11:20:00,75.7,66.4,30.08,SE,133,3.0,3.0,73,0.00,,,0.00,Wunderground v.1.15,2013-02-21 16:20:00,
2013-02-21 11:25:00,76.4,67.5,30.07,SSE,156,4.0,4.0,74,0.00,,,0.00,Wunderground v.1.15,2013-02-21 16:25:00,
2013-02-21 11:30:00,76.6,66.5,30.07,SE,138,5.0,5.0,71,0.00,,,0.00,Wunderground v.1.15,2013-02-21 16:30:00,
2013-02-21 11:35:00,76.6,67.3,30.07,SSE,156,4.0,5.0,73,0.00,,,0.00,Wunderground v.1.15,2013-02-21 16:35:00,
2013-02-21 11:40:00,76.5,66.4,30.07,SSE,156,4.0,4.0,71,0.00,,,0.00,Wunderground v.1.15,2013-02-21 16:40:00,
2013-02-21 11:45:00,76.8,66.7,30.06,SE,130,4.0,7.0,71,0.00,,,0.00,Wunderground v.1.15,2013-02-21 16:45:00,
2013-02-21 11:55:00,76.9,66.8,30.06,SE,137,5.0,5.0,71,0.00,,,0.00,Wunderground v.1.15,2013-02-21 16:55:00,
2013-02-21 12:00:00,76.8,66.3,30.06,SE,137,4.0,4.0,70,0.00,,,0.00,Wunderground v.1.15,2013-02-21 17:00:00,
2013-02-21 12:05:00,76.6,66.1,30.06,SE,137,3.0,4.0,70,0.00,,,0.00,Wunderground v.1.15,2013-02-21 17:05:00,
2013-02-21 12:10:00,76.3,66.2,30.06,SE,142,4.0,6.0,71,0.00,,,0.00,Wunderground v.1.15,2013-02-21 17:10:00,
2013-02-21 12:15:00,77.0,66.0,30.05,SE,129,5.0,6.0,69,0.00,,,0.00,Wunderground v.1.15,2013-02-21 17:15:00,
2013-02-21 12:20:00,77.3,65.9,30.05,SE,126,5.0,5.0,68,0.00,,,0.00,Wunderground v.1.15,2013-02-21 17:20:00,
2013-02-21 12:25:00,77.5,66.1,30.04,SE,125,4.0,5.0,68,0.00,,,0.00,Wunderground v.1.15,2013-02-21 17:25:00,
2013-02-21 12:30:00,77.5,66.1,30.04,SE,125,3.0,3.0,68,0.00,,,0.00,Wunderground v.1.15,2013-02-21 17:30:00,
2013-02-21 12:35:00,77.5,66.1,30.04,SE,125,2.0,3.0,68,0.00,,,0.00,Wunderground v.1.15,2013-02-21 17:35:00,
2013-02-21 12:40:00,77.8,66.0,30.03,SE,126,1.0,1.0,67,0.00,,,0.00,Wunderground v.1.15,2013-02-21 17:40:00,
2013-02-21 12:45:00,78.2,66.3,30.04,SE,127,1.0,4.0,67,0.00,,,0.00,Wunderground v.1.15,2013-02-21 17:45:00,
2013-02-21 12:50:00,78.2,65.9,30.03,SE,144,4.0,5.0,66,0.00,,,0.00,Wunderground v.1.15,2013-02-21 17:50:00,
2013-02-21 12:55:00,77.8,65.1,30.03,SE,145,5.0,5.0,65,0.00,,,0.00,Wunderground v.1.15,2013-02-21 17:55:00,
2013-02-21 13:00:00,77.6,65.8,30.03,SE,145,3.0,3.0,67,0.00,,,0.00,Wunderground v.1.15,2013-02-21 18:00:00,
2013-02-21 13:05:00,78.0,65.7,30.03,SE,145,1.0,3.0,66,0.00,,,0.00,Wunderground v.1.15,2013-02-21 18:05:00,
2013-02-21 13:10:00,78.0,65.3,30.03,SE,145,1.0,1.0,65,0.00,,,0.00,Wunderground v.1.15,2013-02-21 18:10:00,
2013-02-21 13:15:00,78.0,66.2,30.02,SE,145,1.0,4.0,67,0.00,,,0.00,Wunderground v.1.15,2013-02-21 18:15:00,
2013-02-21 13:20:00,78.8,66.0,30.02,SSE,148,3.0,3.0,65,0.00,,,0.00,Wunderground v.1.15,2013-02-21 18:20:00,
2013-02-21 13:25:00,79.4,65.7,30.02,SE,141,3.0,3.0,63,0.00,,,0.00,Wunderground v.1.15,2013-02-21 18:25:00,
2013-02-21 13:30:00,79.6,65.9,30.02,SE,128,2.0,7.0,63,0.00,,,0.00,Wunderground v.1.15,2013-02-21 18:30:00,
2013-02-21 13:35:00,79.6,65.9,30.02,SE,128,1.0,7.0,63,0.00,,,0.00,Wunderground v.1.15,2013-02-21 18:35:00,
2013-02-21 13:40:00,80.0,65.3,30.01,SSE,148,2.0,10.0,61,0.00,,,0.00,Wunderground v.1.15,2013-02-21 18:40:00,
2013-02-21 13:45:00,80.4,64.8,30.01,SSE,153,6.0,10.0,59,0.00,,,0.00,Wunderground v.1.15,2013-02-21 18:45:00,
2013-02-21 13:50:00,80.8,65.1,30.01,South,181,6.0,6.0,59,0.00,,,0.00,Wunderground v.1.15,2013-02-21 18:50:00,
2013-02-21 13:55:00,81.4,65.7,30.01,South,175,4.0,6.0,59,0.00,,,0.00,Wunderground v.1.15,2013-02-21 18:55:00,
2013-02-21 14:00:00,81.6,65.4,30.00,SSE,168,4.0,11.0,58,0.00,,,0.00,Wunderground v.1.15,2013-02-21 19:00:00,
2013-02-21 14:05:00,81.4,64.2,30.00,SSE,161,5.0,11.0,56,0.00,,,0.00,Wunderground v.1.15,2013-02-21 19:05:00,
2013-02-21 14:10:00,81.2,64.5,30.00,SSE,150,7.0,10.0,57,0.00,,,0.00,Wunderground v.1.15,2013-02-21 19:10:00,
2013-02-21 14:15:00,81.4,64.2,30.00,SSE,167,6.0,10.0,56,0.00,,,0.00,Wunderground v.1.15,2013-02-21 19:15:00,
2013-02-21 14:20:00,82.1,64.3,29.99,SSW,194,5.0,5.0,55,0.00,,,0.00,Wunderground v.1.15,2013-02-21 19:20:00,
2013-02-21 14:25:00,82.5,64.7,30.00,South,169,6.0,6.0,55,0.00,,,0.00,Wunderground v.1.15,2013-02-21 19:25:00,
2013-02-21 14:30:00,82.3,64.5,29.99,SSE,161,5.0,5.0,55,0.00,,,0.00,Wunderground v.1.15,2013-02-21 19:30:00,
2013-02-21 14:40:00,81.9,63.6,29.99,South,170,5.0,7.0,54,0.00,,,0.00,Wunderground v.1.15,2013-02-21 19:40:00,
2013-02-21 14:45:00,81.1,63.4,29.99,SSE,163,4.0,7.0,55,0.00,,,0.00,Wunderground v.1.15,2013-02-21 19:45:00,
2013-02-21 14:50:00,80.8,63.1,29.99,South,173,3.0,4.0,55,0.00,,,0.00,Wunderground v.1.15,2013-02-21 19:50:00,
2013-02-21 14:55:00,80.4,62.8,29.99,South,173,3.0,4.0,55,0.00,,,0.00,Wunderground v.1.15,2013-02-21 19:55:00,
2013-02-21 15:00:00,80.8,63.6,29.99,South,175,2.0,3.0,56,0.00,,,0.00,Wunderground v.1.15,2013-02-21 20:00:00,
2013-02-21 15:05:00,81.4,63.2,29.99,South,174,2.0,3.0,54,0.00,,,0.00,Wunderground v.1.15,2013-02-21 20:05:00,
2013-02-21 15:10:00,81.4,63.2,29.98,South,178,2.0,2.0,54,0.00,,,0.00,Wunderground v.1.15,2013-02-21 20:10:00,
2013-02-21 15:20:00,80.8,62.6,29.98,SSE,161,4.0,4.0,54,0.00,,,0.00,Wunderground v.1.15,2013-02-21 20:20:00,
2013-02-21 15:25:00,80.5,62.8,29.98,SSE,161,4.0,4.0,55,0.00,,,0.00,Wunderground v.1.15,2013-02-21 20:25:00,
2013-02-21 15:30:00,80.6,62.9,29.98,SSE,160,2.0,2.0,55,0.00,,,0.00,Wunderground v.1.15,2013-02-21 20:30:00,
2013-02-21 15:35:00,80.9,63.2,29.98,SSE,161,2.0,6.0,55,0.00,,,0.00,Wunderground v.1.15,2013-02-21 20:35:00,
2013-02-21 15:40:00,81.4,63.2,29.98,SSE,166,3.0,5.0,54,0.00,,,0.00,Wunderground v.1.15,2013-02-21 20:40:00,
2013-02-21 15:45:00,81.7,62.9,29.98,SSE,165,3.0,5.0,53,0.00,,,0.00,Wunderground v.1.15,2013-02-21 20:45:00,
2013-02-21 15:50:00,81.5,62.7,29.98,SSE,161,1.0,1.0,53,0.00,,,0.00,Wunderground v.1.15,2013-02-21 20:50:00,
2013-02-21 15:55:00,81.1,62.9,29.98,SSE,161,0.0,5.0,54,0.00,,,0.00,Wunderground v.1.15,2013-02-21 20:55:00,
2013-02-21 16:00:00,81.1,62.9,29.98,SSE,161,3.0,4.0,54,0.00,,,0.00,Wunderground v.1.15,2013-02-21 21:00:00,
2013-02-21 16:05:00,80.7,62.5,29.98,SSE,157,4.0,4.0,54,0.00,,,0.00,Wunderground v.1.15,2013-02-21 21:05:00,
2013-02-21 16:15:00,80.9,63.2,29.98,SSE,158,1.0,3.0,55,0.00,,,0.00,Wunderground v.1.15,2013-02-21 21:15:00,
2013-02-21 16:20:00,81.0,62.8,29.98,SSE,158,0.0,0.0,54,0.00,,,0.00,Wunderground v.1.15,2013-02-21 21:20:00,
2013-02-21 16:25:00,81.1,62.3,29.98,SSE,158,0.0,0.0,53,0.00,,,0.00,Wunderground v.1.15,2013-02-21 21:25:00,
2013-02-21 16:30:00,81.0,62.3,29.98,SSE,157,0.0,0.0,53,0.00,,,0.00,Wunderground v.1.15,2013-02-21 21:30:00,
2013-02-21 16:35:00,80.7,62.0,29.97,SSE,158,0.0,0.0,53,0.00,,,0.00,Wunderground v.1.15,2013-02-21 21:35:00,
2013-02-21 16:40:00,81.1,62.3,29.97,SSE,158,1.0,1.0,53,0.00,,,0.00,Wunderground v.1.15,2013-02-21 21:40:00,
2013-02-21 16:45:00,81.6,62.8,29.97,SSE,157,2.0,2.0,53,0.00,,,0.00,Wunderground v.1.15,2013-02-21 21:45:00,
2013-02-21 16:50:00,82.2,62.8,29.97,SSE,158,1.0,1.0,52,0.00,,,0.00,Wunderground v.1.15,2013-02-21 21:50:00,
2013-02-21 16:55:00,82.1,62.7,29.97,SSE,156,2.0,2.0,52,0.00,,,0.00,Wunderground v.1.15,2013-02-21 21:55:00,
2013-02-21 17:00:00,81.8,63.0,29.97,SSE,157,2.0,2.0,53,0.00,,,0.00,Wunderground v.1.15,2013-02-21 22:00:00,
2013-02-21 17:05:00,81.3,62.5,29.97,SSE,157,1.0,2.0,53,0.00,,,0.00,Wunderground v.1.15,2013-02-21 22:05:00,
2013-02-21 17:15:00,81.2,62.4,29.96,SSE,157,2.0,5.0,53,0.00,,,0.00,Wunderground v.1.15,2013-02-21 22:15:00,
2013-02-21 17:20:00,81.1,62.3,29.96,SSE,156,2.0,2.0,53,0.00,,,0.00,Wunderground v.1.15,2013-02-21 22:20:00,
2013-02-21 17:25:00,80.9,62.7,29.96,SSE,157,1.0,2.0,54,0.00,,,0.00,Wunderground v.1.15,2013-02-21 22:25:00,
2013-02-21 17:30:00,80.7,62.5,29.96,SSE,156,0.0,0.0,54,0.00,,,0.00,Wunderground v.1.15,2013-02-21 22:30:00,
2013-02-21 17:35:00,80.4,62.2,29.96,SSE,157,0.0,0.0,54,0.00,,,0.00,Wunderground v.1.15,2013-02-21 22:35:00,
2013-02-21 17:40:00,79.9,61.8,29.96,SSE,156,0.0,0.0,54,0.00,,,0.00,Wunderground v.1.15,2013-02-21 22:40:00,
2013-02-21 17:45:00,79.5,62.4,29.96,SSE,157,0.0,0.0,56,0.00,,,0.00,Wunderground v.1.15,2013-02-21 22:45:00,
2013-02-21 17:55:00,78.9,61.9,29.97,SSE,156,1.0,2.0,56,0.00,,,0.00,Wunderground v.1.15,2013-02-21 22:55:00,
2013-02-21 18:00:00,78.7,62.2,29.97,SSE,157,2.0,2.0,57,0.00,,,0.00,Wunderground v.1.15,2013-02-21 23:00:00,
2013-02-21 18:05:00,78.3,62.3,29.97,SSE,156,1.0,2.0,58,0.00,,,0.00,Wunderground v.1.15,2013-02-21 23:05:00,
2013-02-21 18:10:00,78.0,62.0,29.97,SSE,157,0.0,0.0,58,0.00,,,0.00,Wunderground v.1.15,2013-02-21 23:10:00,
2013-02-21 18:15:00,77.7,62.2,29.97,SSE,157,0.0,0.0,59,0.00,,,0.00,Wunderground v.1.15,2013-02-21 23:15:00,
2013-02-21 18:20:00,77.2,62.2,29.97,SSE,157,0.0,0.0,60,0.00,,,0.00,Wunderground v.1.15,2013-02-21 23:20:00,
2013-02-21 18:25:00,76.6,61.7,29.97,SSE,157,0.0,0.0,60,0.00,,,0.00,Wunderground v.1.15,2013-02-21 23:25:00,
2013-02-21 18:30:00,76.0,61.6,29.97,SSE,157,0.0,0.0,61,0.00,,,0.00,Wunderground v.1.15,2013-02-21 23:30:00,
2013-02-21 18:40:00,74.8,61.4,29.97,SSE,156,0.0,0.0,63,0.00,,,0.00,Wunderground v.1.15,2013-02-21 23:40:00,
2013-02-21 18:45:00,74.1,60.7,29.98,SSE,156,0.0,0.0,63,0.00,,,0.00,Wunderground v.1.15,2013-02-21 23:45:00,
2013-02-21 18:50:00,73.5,60.1,29.98,SSE,156,0.0,0.0,63,0.00,,,0.00,Wunderground v.1.15,2013-02-21 23:50:00,
2013-02-21 19:00:00,72.2,59.8,29.98,SSE,157,0.0,0.0,65,0.00,,,0.00,Wunderground v.1.15,2013-02-22 00:00:00,
2013-02-21 19:05:00,71.7,60.2,29.98,SSE,156,0.0,0.0,67,0.00,,,0.00,Wunderground v.1.15,2013-02-22 00:05:00,
2013-02-21 19:10:00,71.2,59.7,29.98,SSE,157,0.0,0.0,67,0.00,,,0.00,Wunderground v.1.15,2013-02-22 00:10:00,
2013-02-21 19:15:00,70.6,59.5,29.98,SSE,156,0.0,0.0,68,0.00,,,0.00,Wunderground v.1.15,2013-02-22 00:15:00,
2013-02-21 19:20:00,69.8,58.8,29.98,SSE,157,0.0,0.0,68,0.00,,,0.00,Wunderground v.1.15,2013-02-22 00:20:00,
2013-02-21 19:25:00,69.1,58.1,29.98,SSE,157,0.0,0.0,68,0.00,,,0.00,Wunderground v.1.15,2013-02-22 00:25:00,
2013-02-21 19:30:00,68.7,58.5,29.98,SSE,157,0.0,0.0,70,0.00,,,0.00,Wunderground v.1.15,2013-02-22 00:30:00,
2013-02-21 19:35:00,68.3,58.5,29.98,SSE,156,0.0,0.0,71,0.00,,,0.00,Wunderground v.1.15,2013-02-22 00:35:00,
2013-02-21 19:40:00,67.9,58.9,29.98,SSE,157,0.0,0.0,73,0.00,,,0.00,Wunderground v.1.15,2013-02-22 00:40:00,
2013-02-21 19:50:00,67.1,58.5,29.98,SSE,156,0.0,0.0,74,0.00,,,0.00,Wunderground v.1.15,2013-02-22 00:50:00,
2013-02-21 19:55:00,66.7,57.8,29.99,SSE,156,0.0,0.0,73,0.00,,,0.00,Wunderground v.1.15,2013-02-22 00:55:00,
2013-02-21 20:00:00,66.2,57.7,29.99,SSE,157,0.0,0.0,74,0.00,,,0.00,Wunderground v.1.15,2013-02-22 01:00:00,
2013-02-21 20:05:00,65.7,57.6,29.99,SSE,156,0.0,0.0,75,0.00,,,0.00,Wunderground v.1.15,2013-02-22 01:05:00,
2013-02-21 20:10:00,65.3,57.2,29.99,SSE,157,0.0,0.0,75,0.00,,,0.00,Wunderground v.1.15,2013-02-22 01:10:00,
2013-02-21 20:15:00,64.8,57.1,29.99,SSE,156,0.0,0.0,76,0.00,,,0.00,Wunderground v.1.15,2013-02-22 01:15:00,
2013-02-21 20:20:00,65.1,58.8,30.00,SSE,156,1.0,3.0,80,0.00,,,0.00,Wunderground v.1.15,2013-02-22 01:20:00,
2013-02-21 20:25:00,66.6,60.2,30.00,SSE,157,2.0,3.0,80,0.00,,,0.00,Wunderground v.1.15,2013-02-22 01:25:00,
2013-02-21 20:30:00,67.9,61.1,30.00,SSE,156,2.0,2.0,79,0.00,,,0.00,Wunderground v.1.15,2013-02-22 01:30:00,
2013-02-21 20:35:00,68.9,62.1,30.00,SSE,157,3.0,4.0,79,0.00,,,0.00,Wunderground v.1.15,2013-02-22 01:35:00,
2013-02-21 20:40:00,69.6,62.4,30.00,SSE,157,3.0,3.0,78,0.00,,,0.00,Wunderground v.1.15,2013-02-22 01:40:00,
2013-02-21 20:45:00,70.0,62.8,30.00,SSE,157,3.0,4.0,78,0.00,,,0.00,Wunderground v.1.15,2013-02-22 01:45:00,
2013-02-21 20:50:00,70.1,62.9,30.00,SSE,157,3.0,3.0,78,0.00,,,0.00,Wunderground v.1.15,2013-02-22 01:50:00,
2013-02-21 20:55:00,70.0,62.8,30.00,SSE,156,3.0,5.0,78,0.00,,,0.00,Wunderground v.1.15,2013-02-22 01:55:00,
2013-02-21 21:00:00,70.0,62.8,30.00,SSE,156,3.0,4.0,78,0.00,,,0.00,Wunderground v.1.15,2013-02-22 02:00:00,
2013-02-21 21:05:00,70.0,63.2,30.00,SSE,157,3.0,4.0,79,0.00,,,0.00,Wunderground v.1.15,2013-02-22 02:05:00,
2013-02-21 21:10:00,69.9,63.1,30.00,SSE,157,3.0,5.0,79,0.00,,,0.00,Wunderground v.1.15,2013-02-22 02:10:00,
2013-02-21 21:15:00,70.0,63.2,30.00,SSE,156,3.0,5.0,79,0.00,,,0.00,Wunderground v.1.15,2013-02-22 02:15:00,
2013-02-21 21:20:00,70.1,63.6,30.01,SSE,157,3.0,3.0,80,0.00,,,0.00,Wunderground v.1.15,2013-02-22 02:20:00,
2013-02-21 21:25:00,70.2,64.1,30.01,SSE,157,4.0,4.0,81,0.00,,,0.00,Wunderground v.1.15,2013-02-22 02:25:00,
2013-02-21 21:30:00,70.4,64.3,30.01,SSE,157,4.0,4.0,81,0.00,,,0.00,Wunderground v.1.15,2013-02-22 02:30:00,
2013-02-21 21:35:00,70.4,64.3,30.01,SSE,156,3.0,4.0,81,0.00,,,0.00,Wunderground v.1.15,2013-02-22 02:35:00,
2013-02-21 21:40:00,70.3,64.2,30.01,SSE,157,2.0,3.0,81,0.00,,,0.00,Wunderground v.1.15,2013-02-22 02:40:00,
2013-02-21 21:45:00,70.2,64.1,30.01,SSE,157,1.0,3.0,81,0.00,,,0.00,Wunderground v.1.15,2013-02-22 02:45:00,
2013-02-21 21:50:00,70.1,64.3,30.01,SSE,156,0.0,0.0,82,0.00,,,0.00,Wunderground v.1.15,2013-02-22 02:50:00,
2013-02-21 21:55:00,69.9,64.2,30.02,SSE,157,0.0,0.0,82,0.00,,,0.00,Wunderground v.1.15,2013-02-22 02:55:00,
2013-02-21 22:00:00,69.6,63.9,30.01,SSE,157,0.0,0.0,82,0.00,,,0.00,Wunderground v.1.15,2013-02-22 03:00:00,
2013-02-21 22:05:00,69.4,63.7,30.01,SSE,157,0.0,0.0,82,0.00,,,0.00,Wunderground v.1.15,2013-02-22 03:05:00,
2013-02-21 22:10:00,69.3,63.9,30.01,SSE,156,0.0,0.0,83,0.00,,,0.00,Wunderground v.1.15,2013-02-22 03:10:00,
2013-02-21 22:15:00,69.1,63.7,30.02,SSE,157,1.0,4.0,83,0.00,,,0.00,Wunderground v.1.15,2013-02-22 03:15:00,
2013-02-21 22:20:00,69.1,64.1,30.02,SSE,156,2.0,2.0,84,0.00,,,0.00,Wunderground v.1.15,2013-02-22 03:20:00,
2013-02-21 22:25:00,69.1,64.1,30.02,SSE,156,2.0,2.0,84,0.00,,,0.00,Wunderground v.1.15,2013-02-22 03:25:00,
2013-02-21 22:35:00,69.0,64.0,30.02,SSE,156,1.0,3.0,84,0.00,,,0.00,Wunderground v.1.15,2013-02-22 03:35:00,
2013-02-21 22:40:00,68.9,64.2,30.02,SSE,156,2.0,2.0,85,0.00,,,0.00,Wunderground v.1.15,2013-02-22 03:40:00,
2013-02-21 22:45:00,68.9,64.2,30.01,SSE,156,3.0,3.0,85,0.00,,,0.00,Wunderground v.1.15,2013-02-22 03:45:00,
2013-02-21 22:50:00,68.8,64.4,30.01,SSE,156,3.0,3.0,86,0.00,,,0.00,Wunderground v.1.15,2013-02-22 03:50:00,
2013-02-21 22:55:00,68.7,64.3,30.01,SSE,157,2.0,3.0,86,0.00,,,0.00,Wunderground v.1.15,2013-02-22 03:55:00,
2013-02-21 23:00:00,68.6,64.2,30.02,SSE,157,1.0,1.0,86,0.00,,,0.00,Wunderground v.1.15,2013-02-22 04:00:00,
2013-02-21 23:05:00,68.5,64.1,30.02,SSE,157,0.0,1.0,86,0.00,,,0.00,Wunderground v.1.15,2013-02-22 04:05:00,
2013-02-21 23:10:00,68.4,64.4,30.01,SSE,156,0.0,0.0,87,0.00,,,0.00,Wunderground v.1.15,2013-02-22 04:10:00,
2013-02-21 23:15:00,68.3,64.3,30.01,SSE,157,0.0,0.0,87,0.00,,,0.00,Wunderground v.1.15,2013-02-22 04:15:00,
2013-02-21 23:20:00,68.1,64.1,30.01,SSE,156,0.0,0.0,87,0.00,,,0.00,Wunderground v.1.15,2013-02-22 04:20:00,
2013-02-21 23:25:00,67.9,63.9,30.01,SSE,156,0.0,0.0,87,0.00,,,0.00,Wunderground v.1.15,2013-02-22 04:25:00,
2013-02-21 23:30:00,67.7,64.0,30.01,SSE,156,0.0,0.0,88,0.00,,,0.00,Wunderground v.1.15,2013-02-22 04:30:00,
2013-02-21 23:35:00,67.6,63.9,30.01,SSE,157,0.0,0.0,88,0.00,,,0.00,Wunderground v.1.15,2013-02-22 04:35:00,
2013-02-21 23:40:00,67.5,64.1,30.01,SSE,157,0.0,0.0,89,0.00,,,0.00,Wunderground v.1.15,2013-02-22 04:40:00,
2013-02-21 23:45:00,67.5,64.1,30.01,SSE,157,1.0,3.0,89,0.00,,,0.00,Wunderground v.1.15,2013-02-22 04:45:00,
2013-02-21 23:50:00,67.5,63.8,30.01,SSE,157,3.0,4.0,88,0.00,,,0.00,Wunderground v.1.15,2013-02-22 04:50:00,
2013-02-21 23:55:00,67.6,63.9,30.01,SSE,157,4.0,4.0,88,0.00,,,0.00,Wunderground v.1.15,2013-02-22 04:55:00,